STARLINK-3101 (49168 NORAD) Tracking and Keplerian Element Data

This shows tracking and keplerian element data for the satellite.

Feedback or suggestion? Click here.




ElementValue
Catalog49168
NameSTARLINK-3101
Epoch Orbit817
Epoch Day300.83334491
Epoch Year2021
RAAN3.9482
Inclination69.9994
Eccentricity0.0004073
Argument of Perigee290.9413
Mean Anonmoly101.0859
Mean Motion15.69768342
Decay Rate-0.00029698
L11 49168U 21082AQ 21300.83334491 -.00029698 00000-0 -24764-3 0 9994
L22 49168 69.9994 3.9482 0004073 290.9413 101.0859 15.69768342 8175

Live tracking and technical data element details for STARLINK-3101 (NORAD 49168). STARLINK-3101 can be tracked NOW for your location showing map with azimuth and elevation plus other details from your city location.

Track the satellite on the map from your city or location and see movement details for azimuth, elevation, latitude, longitude, range, height, and movement on the map or in text.







IsCatalogInMostPopularTable: catalog: 49168, numindb: 11
Update: records affected: 1



GetName: 49168 STARLINK-3101

Hit Count: updated at: Thu, 28 Oct 2021 10:19:45 GMT